Miscellaneous Local Product
Issued by NWS Hastings, NE

Home | Current Version | Previous Version | Graphics & Text | Print | Product List | Glossary On
Versions: 1 2 3 4 5 6 7 8 9 10 11 12 13 14 15 16 17 18 19 20 21 22 23 24 25 26 27 28 29 30 31 32 33 34 35 36 37 38 39 40 41 42 43 44 45 46 47 48 49 50
000
AXUS43 KGID 270102
MISGRI

GID CWA HOURLY WEATHER ROUNDUP
NATIONAL WEATHER SERVICE HASTINGS NE
800 PM CDT FRI AUG 26 2016

NOTE: "FAIR" INDICATES FEW OR NO CLOUDS BELOW 12,000 FEET WITH NO
SIGNIFICANT WEATHER AND/OR OBSTRUCTIONS TO VISIBILITY.

...SOUTH CENTRAL NEBRASKA...

CITY           SKY/WX    TMP DP  RH WIND       PRES   REMARKS
GRAND ISLAND   CLOUDY    66  62  87 E8        30.05S
HASTINGS       MOCLDY    65  62  90 E6        30.05R
KEARNEY        PTCLDY    66  61  82 E6        30.03R
ORD            LGT RAIN  68  57  68 E6        30.02F
YORK           CLOUDY    64  64 100 CALM      30.05R FOG
AURORA         CLOUDY    64  64 100 NE3       30.05R FOG
LEXINGTON      CLOUDY    67  63  88 S3        30.06R
HOLDREGE       PTCLDY    65  61  85 NE3       30.05R
HEBRON         CLOUDY    69  66  89 CALM      30.03R

...NEBRASKA PANHANDLE...

CITY           SKY/WX    TMP DP  RH WIND       PRES   REMARKS
CHADRON        CLOUDY    70  52  52 S15       29.99S
ALLIANCE       CLOUDY    63  54  72 SE12      30.05S
SCOTTSBLUFF    PTCLDY    66  54  65 SE13      30.03F
SIDNEY         CLOUDY    60  55  83 E15       30.05F

...WESTERN AND NORTH CENTRAL NEBRASKA...

CITY           SKY/WX    TMP DP  RH WIND       PRES   REMARKS
VALENTINE      CLOUDY    63  57  81 SE6       30.04S
AINSWORTH      PTCLDY    65  56  72 SE8       30.03F
ONEILL         MOCLDY    69  57  65 E8        30.04F
BROKEN BOW     CLOUDY    65  58  78 E8        30.03F
IMPERIAL       CLOUDY    61  58  90 E5        30.06R
NORTH PLATTE   CLOUDY    62  59  90 SE16      30.00F
MCCOOK         CLOUDY    64  60  87 N24       30.07R

...EASTERN NEBRASKA...

CITY           SKY/WX    TMP DP  RH WIND       PRES   REMARKS
NORFOLK        CLOUDY    66  60  81 E8        30.05R
SO SIOUX CITY  CLOUDY    69  60  73 SE8       30.06R
TEKAMAH        CLOUDY    65  61  87 NE6       30.06R
COLUMBUS       CLOUDY    63  55  77 E7        30.06R
ALBION         CLOUDY    65  61  87 SE5       30.06S
OMAHA EPPLEY   CLOUDY    69  63  81 E9        30.04R
OFFUTT AFB     CLOUDY    68  65  90 NE5       30.03S
MILLARD        CLOUDY    69  64  82 CALM      30.04R
LINCOLN        CLOUDY    69  65  86 E7        30.05R
NEBRASKA CITY  CLOUDY    67  67 100 NE7       30.03R
BEATRICE       CLOUDY    70  67  88 NE6       30.03R
FALLS CITY     CLOUDY    71  70  96 CALM      30.01R

...NORTHERN KANSAS...

CITY           SKY/WX    TMP DP  RH WIND       PRES   REMARKS
GOODLAND       CLOUDY    64  55  72 NE12      30.06R
HILL CITY      CLEAR     69  63  81 E5        30.04R
NORTON         CLOUDY    70  55  60 E6        30.04R
SMITH CENTER   CLEAR     66  63  88 CALM      30.04R
BELOIT         CLOUDY    70  64  83 CALM      30.02R
HAYS           CLEAR     73  61  64 E8        30.01R
RUSSELL        MOCLDY    72  66  81 E6        30.01R
CONCORDIA      CLOUDY    73  66  78 CALM      30.02R
SALINA         CLEAR     77  68  73 E5        30.01R
TOPEKA         MOCLDY    74  71  91 N6        29.99R



USA.gov is the U.S. government's official web portal to all federal, state and local government web resources and services.